• en Belgique
  • Liste des pays
  • À 7 jours
  • Température de l'eau
  • Carte satellitaire
  • Carte météo
  • Widgets météo
  • user-avatar
    Se connecter

    Météo par heure à Arlon

    Ce jour, 19 Février, Lundi

    Heure Température Précipitation Vent Pression Humidité
    00:00 -2°C° 0 mm 1 m/s 735 mmHg 90%
    01:00 -2°C° 0 mm 1 m/s 735 mmHg 90%
    02:00 -2°C° 0 mm 1 m/s 735 mmHg 90%
    03:00 -3°C° 0 mm 1 m/s 734 mmHg 90%
    04:00 -3°C° 0 mm 1 m/s 734 mmHg 90%
    05:00 -3°C° 0 mm 1 m/s 734 mmHg 89%
    06:00 -2°C° 0 mm 1 m/s 734 mmHg 89%
    07:00 -1°C° 0 mm 1 m/s 734 mmHg 85%
    08:00 0°C° 0 mm 1 m/s 734 mmHg 81%
    09:00 +1°C° 0 mm 1 m/s 734 mmHg 77%
    10:00 +2°C° 0 mm 1 m/s 733 mmHg 73%
    11:00 +3°C° 0 mm 1 m/s 733 mmHg 70%
    12:00 +4°C° 0 mm 1 m/s 733 mmHg 66%
    13:00 +4°C° 0 mm 1 m/s 733 mmHg 65%
    14:00 +3°C° 0 mm 0 m/s 732 mmHg 65%
    15:00 +3°C° 0 mm 0 m/s 732 mmHg 64%
    16:00 +2°C° 0 mm 0 m/s 732 mmHg 68%
    17:00 +1°C° 0 mm 0 m/s 731 mmHg 72%
    18:00 0°C° 0 mm 0 m/s 731 mmHg 76%
    19:00 0°C° 0 mm 0 m/s 731 mmHg 76%
    20:00 0°C° 0 mm 0 m/s 731 mmHg 77%
    21:00 0°C° 0 mm 0 m/s 731 mmHg 77%
    22:00 0°C° 0 mm 0 m/s 731 mmHg 77%
    23:00 0°C° 0 mm 0 m/s 731 mmHg 78%

    Demain, 20 Février, Mardi

    Heure Température Précipitation Vent Pression Humidité
    00:00 0°C° 0 mm 0 m/s 731 mmHg 78%
    01:00 0°C° 0 mm 1 m/s 730 mmHg 79%
    02:00 0°C° 0 mm 1 m/s 730 mmHg 80%
    03:00 0°C° 0 mm 1 m/s 730 mmHg 81%
    04:00 -1°C° 0 mm 1 m/s 730 mmHg 82%
    05:00 -1°C° 0 mm 1 m/s 730 mmHg 83%
    06:00 -1°C° 0 mm 1 m/s 730 mmHg 85%
    07:00 0°C° 0 mm 1 m/s 730 mmHg 80%
    08:00 +1°C° 0 mm 1 m/s 731 mmHg 76%
    09:00 +2°C° 0 mm 1 m/s 731 mmHg 71%
    10:00 +2°C° 0 mm 2 m/s 731 mmHg 67%
    11:00 +3°C° 0 mm 2 m/s 731 mmHg 63%
    12:00 +4°C° 0 mm 2 m/s 732 mmHg 59%
    13:00 +4°C° 0 mm 2 m/s 731 mmHg 60%
    14:00 +4°C° 0 mm 2 m/s 731 mmHg 61%
    15:00 +4°C° 0 mm 2 m/s 731 mmHg 62%
    16:00 +2°C° 0 mm 2 m/s 732 mmHg 68%
    17:00 +1°C° 0 mm 2 m/s 732 mmHg 74%
    18:00 -2°C° 0 mm 2 m/s 732 mmHg 80%
    19:00 -2°C° 0 mm 2 m/s 732 mmHg 81%
    20:00 -4°C° 0 mm 3 m/s 733 mmHg 82%
    21:00 -4°C° 0 mm 3 m/s 733 mmHg 83%
    22:00 -4°C° 0 mm 3 m/s 733 mmHg 84%
    23:00 -4°C° 0 mm 3 m/s 734 mmHg 85%

    Après-demain, 21 Février, Mercredi

    Heure Température Précipitation Vent Pression Humidité
    00:00 -5°C° 0 mm 3 m/s 734 mmHg 87%
    01:00 -5°C° 0 mm 3 m/s 734 mmHg 87%
    02:00 -5°C° 0 mm 3 m/s 734 mmHg 86%
    03:00 -5°C° 0 mm 4 m/s 734 mmHg 86%
    04:00 -5°C° 0 mm 4 m/s 734 mmHg 86%
    05:00 -5°C° 0 mm 4 m/s 735 mmHg 86%
    06:00 -5°C° 0 mm 4 m/s 735 mmHg 85%
    07:00 -4°C° 0 mm 4 m/s 735 mmHg 80%
    08:00 -3°C° 0 mm 4 m/s 735 mmHg 75%
    09:00 -2°C° 0 mm 4 m/s 736 mmHg 70%
    10:00 0°C° 0 mm 4 m/s 736 mmHg 65%
    11:00 +1°C° 0 mm 4 m/s 735 mmHg 60%
    12:00 +3°C° 0 mm 4 m/s 735 mmHg 55%
    13:00 +3°C° 0 mm 4 m/s 735 mmHg 55%
    14:00 +3°C° 0 mm 4 m/s 734 mmHg 56%
    15:00 +2°C° 0 mm 5 m/s 734 mmHg 56%
    16:00 0°C° 0 mm 4 m/s 734 mmHg 62%
    17:00 -1°C° 0 mm 4 m/s 734 mmHg 68%
    18:00 -2°C° 0 mm 3 m/s 734 mmHg 74%
    19:00 -2°C° 0 mm 3 m/s 734 mmHg 75%
    20:00 -4°C° 0 mm 3 m/s 734 mmHg 76%
    21:00 -4°C° 0 mm 3 m/s 734 mmHg 77%
    22:00 -4°C° 0 mm 4 m/s 734 mmHg 78%
    23:00 -5°C° 0 mm 4 m/s 733 mmHg 78%

    22 Février, Jeudi

    Heure Température Précipitation Vent Pression Humidité
    00:00 -5°C° 0 mm 4 m/s 733 mmHg 79%
    01:00 -5°C° 0 mm 4 m/s 733 mmHg 79%
    02:00 -5°C° 0 mm 4 m/s 733 mmHg 78%
    03:00 -5°C° 0 mm 4 m/s 732 mmHg 78%
    04:00 -6°C° 0 mm 5 m/s 732 mmHg 78%
    05:00 -6°C° 0 mm 5 m/s 732 mmHg 78%
    06:00 -6°C° 0 mm 5 m/s 732 mmHg 78%
    07:00 -5°C° 0 mm 6 m/s 732 mmHg 72%
    08:00 -4°C° 0 mm 6 m/s 732 mmHg 67%
    09:00 -3°C° 0 mm 7 m/s 732 mmHg 62%
    10:00 -3°C° 0 mm 7 m/s 732 mmHg 56%
    11:00 -2°C° 0 mm 7 m/s 732 mmHg 51%
    12:00 -1°C° 0 mm 7 m/s 732 mmHg 46%
    13:00 -1°C° 0 mm 7 m/s 732 mmHg 46%
    14:00 -1°C° 0 mm 7 m/s 731 mmHg 46%
    15:00 -1°C° 0 mm 7 m/s 731 mmHg 46%
    16:00 -2°C° 0 mm 7 m/s 731 mmHg 51%
    17:00 -3°C° 0 mm 6 m/s 731 mmHg 55%
    18:00 -5°C° 0 mm 6 m/s 731 mmHg 59%
    19:00 -5°C° 0 mm 6 m/s 732 mmHg 60%
    20:00 -5°C° 0 mm 6 m/s 732 mmHg 61%
    21:00 -5°C° 0 mm 6 m/s 732 mmHg 62%
    22:00 -6°C° 0 mm 6 m/s 732 mmHg 63%
    23:00 -6°C° 0 mm 6 m/s 732 mmHg 63%

    23 Février, Vendredi

    Heure Température Précipitation Vent Pression Humidité
    00:00 -6°C° 0 mm 6 m/s 731 mmHg 63%
    01:00 -6°C° 0 mm 6 m/s 731 mmHg 63%
    02:00 -6°C° 0 mm 6 m/s 731 mmHg 62%
    03:00 -8°C° 0 mm 6 m/s 731 mmHg 62%
    04:00 -8°C° 0 mm 6 m/s 731 mmHg 61%
    05:00 -8°C° 0 mm 6 m/s 731 mmHg 60%
    06:00 -8°C° 0 mm 6 m/s 731 mmHg 59%
    07:00 -6°C° 0 mm 6 m/s 731 mmHg 56%
    08:00 -7°C° 0 mm 7 m/s 732 mmHg 52%
    09:00 -6°C° 0 mm 7 m/s 732 mmHg 48%
    10:00 -4°C° 0 mm 7 m/s 732 mmHg 46%
    11:00 -3°C° 0 mm 7 m/s 732 mmHg 44%
    12:00 -1°C° 0 mm 7 m/s 732 mmHg 41%
    13:00 -1°C° 0 mm 7 m/s 732 mmHg 41%
    14:00 -1°C° 0 mm 7 m/s 732 mmHg 41%
    15:00 -1°C° 0 mm 7 m/s 732 mmHg 41%
    16:00 -2°C° 0 mm 7 m/s 732 mmHg 44%
    17:00 -3°C° 0 mm 6 m/s 732 mmHg 46%
    18:00 -5°C° 0 mm 6 m/s 732 mmHg 48%
    19:00 -5°C° 0 mm 6 m/s 733 mmHg 49%
    20:00 -5°C° 0 mm 6 m/s 733 mmHg 50%
    21:00 -6°C° 0 mm 6 m/s 734 mmHg 51%
    22:00 -6°C° 0 mm 6 m/s 734 mmHg 51%
    23:00 -6°C° 0 mm 6 m/s 734 mmHg 50%

    24 Février, Samedi

    Heure Température Précipitation Vent Pression Humidité
    00:00 -6°C° 0 mm 6 m/s 734 mmHg 50%
    01:00 -8°C° 0 mm 7 m/s 734 mmHg 48%
    02:00 -8°C° 0 mm 7 m/s 734 mmHg 46%
    03:00 -8°C° 0 mm 7 m/s 734 mmHg 44%
    04:00 -8°C° 0 mm 7 m/s 735 mmHg 42%
    05:00 -8°C° 0 mm 7 m/s 735 mmHg 40%
    06:00 -8°C° 0 mm 7 m/s 735 mmHg 38%
    07:00 -8°C° 0 mm 7 m/s 736 mmHg 35%
    08:00 -7°C° 0 mm 8 m/s 736 mmHg 32%
    09:00 -6°C° 0 mm 8 m/s 737 mmHg 29%
    10:00 -5°C° 0 mm 8 m/s 737 mmHg 28%
    11:00 -4°C° 0 mm 8 m/s 737 mmHg 27%
    12:00 -2°C° 0 mm 8 m/s 737 mmHg 26%
    13:00 -2°C° 0 mm 8 m/s 737 mmHg 27%
    14:00 -2°C° 0 mm 8 m/s 737 mmHg 28%
    15:00 -2°C° 0 mm 8 m/s 736 mmHg 30%
    16:00 -3°C° 0 mm 7 m/s 737 mmHg 33%
    17:00 -4°C° 0 mm 6 m/s 737 mmHg 37%
    18:00 -5°C° 0 mm 6 m/s 737 mmHg 40%
    19:00 -5°C° 0 mm 6 m/s 737 mmHg 42%
    20:00 -6°C° 0 mm 6 m/s 737 mmHg 44%
    21:00 -7°C° 0 mm 7 m/s 738 mmHg 46%
    22:00 -8°C° 0 mm 7 m/s 738 mmHg 47%
    23:00 -8°C° 0 mm 7 m/s 737 mmHg 48%
    Voir plus